SCP
3 3 2 1 1 0 0 0 0 0 0 0 0 0 0 0 0 1 1 1 1 1 1 1 1 1 1 1 1 1 1 1 1 0 0 0 0 0 0 1 1 1 1 1 1 1 0 0 1
3 2 2 1 1 0 0 0 0 1 0 0 0 0 0 0 1 1 1 1 1 1 1 1 1 1 1 1 1 1 1 1 1 0 0 0 0 0 0 1 1 1 1 1 1 1 1 1 1
2 2 1 1 0 0 0 1 1 1 1 1 0 0 0 1 1 1 1 1 1 1 1 1 1 1 0 0 1 1 1 1 0 0 0 0 0 0 0 1 1 1 2 2 2 1 1 1 1
2 1 1 1 0 0 1 1 1 1 1 1 1 0 0 1 1 1 1 1 1 1 1 1 1 1 1 0 1 1 1 1 1 0 0 0 0 0 0 1 1 1 2 2 2 1 1 1 1
1 1 0 0 0 0 1 1 1 1 1 1 1 1 1 1 2 2 1 1 1 1 1 1 1 1 1 1 1 1 1 1 1 0 0 0 0 0 1 1 1 2 2 2 1 1 1 1 1
1 0 0 0 0 0 1 1 1 2 2 2 1 1 1 1 2 2 2 1 1 1 1 1 1 1 1 1 1 1 1 1 1 1 0 0 1 1 1 1 2 2 1 1 1 1 1 1 1
0 0 0 0 0 0 1 1 1 2 2 2 1 1 1 1 2 2 2 2 2 1 1 1 1 1 1 1 1 1 1 1 1 1 0 0 1 1 1 2 2 1 1 1 1 1 1 1 1
0 0 0 0 0 0 1 1 1 2 2 2 2 1 1 1 2 2 2 2 2 2 1 1 1 1 1 1 1 1 1 1 1 1 0 0 0 1 1 1 1 1 1 0 0 1 1 1 1
0 0 0 0 0 0 1 1 1 1 1 2 2 2 2 2 2 2 2 3 3 2 2 2 1 1 1 1 1 1 1 1 1 0 0 0 0 0 1 1 1 1 1 1 1 1 1 1 1
0 0 0 0 0 1 1 1 1 1 1 2 2 2 2 2 2 2 3 3 3 3 2 2 2 2 1 1 1 0 0 0 0 0 0 0 0 0 0 1 1 1 1 1 1 1 1 1 1
0 0 0 0 1 1 1 1 1 1 1 2 3 3 2 2 2 2 2 3 3 3 2 2 2 2 1 1 1 0 0 0 0 0 0 0 0 0 0 0 0 0 1 1 1 1 1 1 1
0 0 0 0 1 1 1 1 1 1 1 1 2 2 2 2 2 2 2 2 2 2 2 2 2 2 1 1 1 1 1 0 0 0 0 0 0 0 0 0 0 0 0 1 1 1 1 0 0
1 1 0 0 1 1 1 1 1 1 1 1 2 2 2 2 1 1 2 2 2 2 2 2 2 2 2 2 2 1 1 1 1 0 0 0 0 0 0 0 0 1 1 1 1 1 0 0 0
0 0 0 0 1 1 1 1 1 1 1 2 3 2 2 2 1 1 1 2 2 2 2 2 2 2 2 2 2 1 1 1 1 1 1 0 0 0 0 0 1 1 1 1 1 0 0 0 0
0 0 0 0 0 0 0 1 1 1 2 3 4 3 2 2 1 1 1 1 2 2 2 2 2 2 2 2 2 1 1 1 1 1 1 0 0 0 0 0 1 1 1 1 1 0 0 0 0
0 0 0 0 0 0 0 0 1 1 2 3 4 4 2 1 1 2 2 1 2 2 2 2 3 3 2 1 1 1 1 1 1 1 1 0 0 0 0 0 0 1 1 1 1 1 0 0 0
0 0 0 0 0 0 1 1 1 1 2 3 4 4 2 2 2 2 2 2 2 2 2 2 3 3 2 2 1 1 1 1 1 1 1 0 0 0 0 0 0 1 1 1 1 1 1 0 0
0 0 0 0 0 1 1 1 1 1 2 3 4 4 3 2 2 2 2 2 3 3 2 3 3 3 2 2 2 1 1 1 1 1 1 1 1 1 1 0 0 1 1 1 1 1 1 0 0
0 0 0 0 0 1 1 1 1 2 3 4 4 4 3 3 3 3 3 3 3 3 3 3 3 3 3 2 2 2 2 2 2 2 1 1 1 1 1 1 1 1 1 1 0 0 0 0 0
0 0 0 0 1 1 1 1 2 3 4 4 4 4 4 5 5 5 4 3 4 4 4 3 4 4 4 3 2 2 2 2 2 2 2 1 1 1 1 1 1 1 1 1 0 0 0 0 0
0 0 0 0 1 1 1 1 2 3 4 5 5 5 4 5 5 5 4 4 5 5 5 4 4 4 5 4 3 2 1 1 2 2 2 1 1 1 1 1 1 1 1 1 0 0 0 0 0
0 0 0 0 1 1 1 1 2 2 3 4 4 4 4 4 5 5 5 4 5 5 5 5 4 4 5 5 4 3 2 1 1 1 1 1 1 1 2 2 1 1 1 1 1 0 0 0 0
0 0 0 0 0 0 0 1 1 1 2 2 2 3 4 6 8 8 6 4 4 5 6 6 6 5 5 5 5 3 2 2 2 2 1 1 1 2 2 2 1 1 1 1 1 1 0 0 0
0 0 0 0 0 0 0 1 1 1 1 2 3 4 5 7 9 9 7 5 4 5 7 7 7 6 5 5 4 4 3 2 2 2 2 2 2 2 2 2 1 1 1 1 1 1 1 1 0
0 0 0 0 0 0 0 0 1 1 2 3 4 5 5 6 7 7 6 6 5 6 7 8 7 6 5 5 5 4 4 3 3 3 3 3 2 2 2 2 1 1 1 1 1 1 1 1 1
0 0 0 0 0 0 0 0 1 2 3 4 5 4 4 5 5 5 5 6 6 7 8 8 7 7 6 6 6 5 4 4 4 3 3 3 2 2 2 2 1 1 1 1 1 1 1 1 1
0 0 0 0 0 0 0 1 1 3 5 6 5 4 4 4 4 5 5 6 8 9 9 8 7 6 5 5 5 4 4 3 3 3 2 2 2 2 2 2 1 1 1 1 2 2 2 1 1
0 0 0 0 0 0 0 1 1 3 5 6 5 4 4 5 5 6 7 8 10 11 11 10 8 6 5 4 4 3 3 2 2 2 2 2 2 2 1 1 1 1 1 1 2 2 2 2 2
0 0 0 0 0 0 0 0 1 2 4 5 5 6 7 8 8 8 8 10 11 12 11 10 8 6 5 4 3 3 2 2 2 2 2 2 2 2 2 1 1 1 1 1 2 2 3 3 3
0 0 0 0 0 0 0 0 1 2 4 5 6 8 10 11 10 9 9 9 10 10 10 9 7 6 5 4 4 3 3 3 3 2 2 2 2 2 2 2 2 2 1 1 2 2 3 3 3
Wind_Speed
10 8 4 1 4 5 6 6 9 10 7 9 11 11 10 7 6 7 4 9 10 7 5 8 12 13 13 13 12 12 13 13 13 13 13 13 13 13 14 14 14 15 15 15 15 15 15 15 15
7 6 2 3 5 4 4 7 11 12 13 13 13 13 10 9 9 10 6 9 10 8 6 8 11 13 13 13 12 13 13 13 13 13 13 13 13 13 13 13 14 15 15 15 15 15 15 14 15
7 4 2 4 3 5 5 8 13 13 12 10 8 8 7 7 8 7 8 12 10 7 6 8 13 13 13 13 12 12 13 13 13 13 13 13 12 12 13 13 14 14 14 14 14 14 14 14 14
3 2 3 5 5 5 9 10 13 14 10 10 10 8 6 6 6 10 14 13 11 7 6 8 13 13 12 12 12 12 12 12 12 12 12 12 12 12 13 13 13 14 14 13 13 13 13 13 13
2 3 5 3 5 6 9 11 12 11 7 10 11 10 6 6 13 16 14 13 11 8 6 7 13 13 12 12 12 12 12 12 11 12 11 11 12 12 13 13 13 13 13 13 12 12 12 11 11
3 4 5 4 6 7 8 12 14 15 15 13 13 10 4 8 13 13 13 11 11 10 7 7 12 13 12 12 12 12 11 11 11 11 11 11 12 12 12 13 13 13 12 12 11 10 10 9 9
4 3 4 5 6 7 7 9 13 14 13 9 10 8 5 7 10 12 11 10 9 9 7 4 5 8 11 11 11 11 11 11 11 11 11 11 11 12 12 12 12 12 11 11 10 9 8 7 7
5 4 3 3 6 6 7 7 10 14 11 13 9 8 7 8 11 12 11 9 8 7 6 5 4 4 4 6 10 10 10 10 10 11 10 10 10 10 11 10 10 11 10 9 8 8 6 6 6
5 5 3 5 7 6 8 11 8 9 12 7 5 8 12 14 14 13 10 7 7 7 5 6 5 5 4 4 7 8 9 9 8 8 9 8 4 4 5 8 10 10 9 8 7 7 5 4 3
5 5 7 7 7 9 11 13 9 8 11 9 11 12 14 14 14 13 11 9 8 8 6 6 6 6 5 5 4 2 3 3 3 2 3 3 2 3 4 7 9 9 8 7 6 5 3 1 1
5 6 5 5 8 11 10 9 7 12 9 14 17 16 14 14 12 12 11 10 10 9 8 7 7 6 5 3 3 2 1 2 2 3 3 3 2 2 2 2 3 3 4 2 2 1 0 0 0
4 4 6 7 9 10 10 9 8 8 12 16 17 16 13 13 12 11 10 9 8 8 8 7 7 6 5 4 3 3 2 2 2 3 4 3 2 2 2 2 2 1 1 2 1 1 1 1 1
6 3 4 7 8 9 10 9 9 9 14 15 15 14 13 12 10 9 10 9 8 8 7 7 7 7 5 5 3 4 3 3 3 3 3 4 3 3 3 2 2 2 2 2 2 2 2 2 2
4 5 3 5 7 8 12 8 8 12 16 17 15 13 13 12 11 10 9 9 9 8 8 7 7 7 6 5 4 3 3 3 3 3 4 4 4 4 3 3 2 2 2 2 3 3 2 2 1
3 5 3 2 6 5 10 6 8 15 16 16 14 12 11 11 12 13 13 11 10 9 8 7 7 7 6 5 4 4 3 3 3 3 4 4 4 4 4 3 2 2 2 2 2 2 1 1 1
4 4 2 2 4 5 8 5 7 13 15 14 13 13 11 10 11 12 12 10 10 10 9 8 8 7 5 4 4 3 3 3 3 3 3 4 4 4 3 3 2 2 2 2 2 2 1 1 1
4 1 2 3 3 5 5 5 9 11 14 13 12 12 11 9 9 9 11 11 11 10 10 8 7 7 6 5 4 3 3 3 3 3 3 3 4 4 3 2 2 2 1 1 2 2 2 2 1
4 3 3 4 4 5 4 5 9 10 13 14 12 11 11 12 11 11 11 11 10 10 9 8 7 7 6 4 3 2 2 2 2 3 3 4 3 4 3 2 2 2 1 1 1 1 1 2 2
5 4 4 5 4 5 5 5 8 8 10 11 10 9 10 11 10 10 11 11 10 9 8 8 8 6 5 3 3 3 2 2 2 2 3 4 4 4 3 2 2 2 2 2 2 2 2 1 1
3 3 4 4 3 4 5 4 5 7 10 12 13 12 11 9 9 10 10 11 11 11 9 8 8 8 7 4 3 3 3 2 2 2 2 4 4 4 4 4 3 3 2 2 2 2 2 1 1
3 5 6 4 2 5 7 2 2 3 3 4 7 9 11 12 13 12 12 11 11 11 11 10 9 8 7 6 3 2 2 1 0 1 2 3 4 4 4 5 4 3 3 3 3 3 3 2 1
5 6 5 4 5 1 5 3 5 5 5 7 7 8 10 11 11 12 12 12 13 12 11 9 9 8 7 7 6 5 4 3 4 3 2 3 3 4 4 4 4 4 3 3 3 3 2 3 2
7 4 2 2 5 3 2 4 5 3 6 9 10 11 12 11 12 13 13 13 13 12 11 9 8 8 7 7 7 6 4 3 3 2 3 2 2 3 3 4 3 3 3 3 3 2 2 2 2
3 3 4 5 5 1 4 4 5 6 9 9 9 9 9 10 10 11 11 10 9 10 9 9 8 7 7 7 7 7 6 5 4 3 3 3 2 2 3 3 3 3 3 3 3 3 3 3 3
4 6 4 5 4 5 3 3 7 7 7 9 9 9 9 9 8 9 9 10 9 10 9 9 9 7 7 7 7 7 7 7 6 5 4 4 2 2 3 3 3 3 3 3 3 3 3 3 3
4 10 8 5 5 4 3 3 6 5 2 3 5 5 6 8 8 9 9 10 10 10 9 9 9 7 7 7 6 6 6 4 4 5 4 4 3 4 4 4 4 4 4 4 3 3 3 3 3
4 4 9 8 3 1 3 3 5 2 3 3 3 3 4 6 8 8 8 8 8 9 9 9 9 8 7 7 6 5 5 5 5 5 4 4 3 4 4 4 4 4 4 4 3 2 3 3 3
7 7 6 6 5 2 3 3 4 4 4 4 4 5 5 5 7 7 7 7 7 7 6 7 8 8 7 7 7 6 5 5 5 4 4 4 4 4 4 4 4 4 4 4 4 3 3 3 2
0 3 5 5 6 7 3 7 7 10 8 8 7 8 8 7 8 8 7 7 6 6 7 7 7 7 6 6 6 5 5 5 5 4 5 5 4 4 4 4 4 4 4 4 4 3 3 3 3
4 5 7 5 4 5 5 7 5 8 8 8 7 7 7 6 7 8 8 8 6 6 6 7 7 6 6 6 5 5 5 5 5 5 5 4 4 4 4 4 4 4 4 4 4 4 4 3 3
Wind_Direction
162 164 168 145 57 54 81 92 97 86 70 70 79 85 83 63 93 123 150 136 128 126 119 114 113 111 109 107 105 104 105 102 102 102 101 102 103 104 106 106 109 112 114 114 115 116 116 116 116
167 169 162 62 76 76 75 97 95 99 115 106 86 84 77 71 87 112 127 136 131 128 122 121 118 114 112 110 106 104 106 105 106 106 106 105 106 105 107 107 111 113 115 115 115 116 117 116 115
179 186 106 71 93 125 116 107 109 109 108 100 93 72 71 99 109 123 144 140 127 122 122 129 124 119 116 113 111 108 108 109 109 109 108 109 110 110 109 109 111 113 114 114 114 116 118 117 115
153 102 52 75 105 122 122 127 120 111 90 86 95 77 71 107 118 130 138 136 128 125 126 132 127 124 121 118 116 115 113 113 112 112 111 112 114 114 113 113 111 112 113 114 114 116 116 116 115
101 83 61 74 108 113 118 122 117 106 92 94 97 99 86 94 117 130 138 136 133 132 132 133 130 129 126 123 120 119 118 116 115 115 114 113 118 118 116 117 116 115 114 115 116 117 118 118 114
82 70 80 91 104 105 112 118 110 105 112 111 109 108 105 125 128 137 139 139 138 139 138 136 135 133 130 127 125 123 123 120 119 118 117 114 116 118 120 120 120 119 118 116 117 118 119 118 114
109 100 121 130 117 115 128 126 121 128 131 129 126 106 120 141 140 136 133 136 136 137 135 131 133 132 133 132 130 128 127 125 123 123 123 120 119 121 122 123 124 122 122 124 123 122 120 117 111
142 111 103 120 121 125 134 119 126 131 124 133 131 126 152 162 142 131 129 131 135 139 143 144 137 130 130 131 134 133 133 132 131 130 130 127 125 124 125 127 129 128 128 129 130 131 129 120 114
120 96 145 166 144 143 131 110 105 105 120 134 111 130 150 145 135 130 128 130 142 147 156 157 152 149 146 144 143 141 141 141 139 136 137 131 114 117 126 136 137 135 135 136 138 140 138 127 123
110 135 188 183 157 148 137 129 128 110 111 107 108 123 138 138 140 142 149 155 159 161 168 167 161 163 165 156 135 139 145 140 135 132 133 123 127 136 140 149 151 148 146 146 151 154 150 131 95
135 163 174 150 150 144 140 138 122 126 133 146 145 148 149 146 149 153 159 163 168 170 170 169 168 166 166 151 149 151 148 144 145 149 149 143 137 137 133 138 151 151 155 148 154 177 236 223 168
118 151 146 146 139 137 140 139 129 143 158 157 153 153 153 157 162 163 165 168 163 163 166 164 163 158 160 157 159 160 162 165 163 167 159 150 147 152 157 157 163 167 169 174 181 199 234 248 233
112 143 148 143 134 130 125 131 128 135 143 149 151 153 158 162 163 166 163 160 156 160 162 158 155 154 152 149 161 160 169 173 173 172 168 160 156 161 162 165 171 190 190 183 183 199 223 234 231
157 145 135 124 115 126 125 126 117 145 149 151 157 163 167 164 161 158 160 162 161 159 157 154 151 156 150 150 155 160 171 170 168 174 177 166 161 165 164 168 178 197 200 192 190 199 201 214 205
104 111 95 112 112 128 110 102 145 155 154 156 163 166 169 167 164 165 168 165 163 160 157 157 156 156 152 150 154 160 167 164 170 176 178 172 167 166 164 167 179 197 200 193 189 194 177 182 168
46 80 118 248 129 148 115 162 179 161 158 161 166 169 169 171 171 168 165 161 159 158 161 165 160 157 157 156 153 151 160 162 171 171 173 176 172 169 162 167 189 195 184 173 171 172 156 158 150
17 100 223 264 166 146 127 180 192 172 164 168 172 171 170 171 173 170 167 165 164 163 164 167 161 162 164 162 153 156 159 167 175 168 171 179 175 171 160 171 190 183 165 175 185 170 164 171 173
237 224 225 229 213 143 153 190 185 181 171 172 174 173 170 176 182 177 171 170 167 165 166 165 164 167 161 152 135 134 144 174 176 175 181 177 179 173 161 167 181 172 152 151 148 160 161 170 173
200 215 233 239 206 153 163 176 183 181 171 173 174 173 176 186 181 173 172 170 166 166 167 167 165 171 160 153 151 156 175 187 186 191 186 180 178 172 164 164 165 160 157 172 172 156 148 150 127
201 210 249 271 191 134 133 163 182 190 185 179 175 175 180 183 177 175 173 171 171 173 175 173 172 174 173 171 166 164 164 178 185 189 182 185 179 177 172 168 171 173 162 170 171 149 140 165 146
241 196 214 210 79 81 96 37 205 213 186 187 181 178 175 181 181 179 177 176 174 178 180 182 180 178 178 169 149 135 101 78 107 200 200 200 184 181 180 175 172 176 171 181 193 174 158 173 202
255 231 207 183 117 194 132 180 247 205 196 203 199 194 192 185 180 181 181 179 182 185 182 179 177 179 180 169 163 164 170 185 203 196 195 202 188 185 184 179 177 178 174 178 191 174 163 154 179
236 237 193 159 130 101 62 136 263 184 203 217 211 202 194 189 183 183 187 186 185 183 180 179 175 179 179 176 174 173 178 190 190 178 180 199 204 200 191 180 175 175 173 174 173 157 152 156 166
225 33 25 56 75 75 230 159 244 213 205 211 209 207 193 184 187 187 185 178 179 177 176 174 173 179 179 177 175 175 179 181 176 180 183 198 206 214 209 185 175 177 177 177 177 168 166 173 171
78 82 26 0 18 247 250 157 235 237 213 195 191 198 190 180 176 175 173 170 172 172 172 173 172 176 178 178 181 182 183 181 183 186 189 190 195 209 213 195 185 185 187 184 176 172 181 181 176
185 140 159 193 210 261 317 222 249 245 237 168 163 166 167 170 173 178 172 168 168 169 170 171 173 175 176 179 186 186 185 181 188 190 187 193 200 208 203 192 190 191 188 187 183 183 193 182 186
175 176 166 140 160 152 280 288 322 13 78 82 103 119 147 162 166 174 165 159 161 165 171 173 172 173 178 181 182 186 187 187 191 192 187 191 199 204 198 191 189 192 191 190 181 189 193 179 184
165 156 101 118 147 202 281 251 216 210 166 142 143 150 149 148 147 153 160 161 158 161 168 170 174 180 183 182 186 190 191 191 190 189 195 197 203 204 192 196 192 194 194 194 184 187 185 167 180
313 110 113 123 150 156 203 258 220 190 180 169 165 155 151 151 147 149 157 158 158 163 168 171 175 176 180 185 191 193 196 197 192 194 202 203 204 194 191 194 189 188 190 188 178 186 174 175 185
174 177 143 152 204 160 160 257 251 187 175 159 152 137 136 142 145 151 152 150 154 162 169 173 175 177 182 185 187 195 198 195 195 202 202 197 199 197 190 185 183 187 185 178 174 184 180 175 182